Hatteras, NC

10:39 AM EDT on October 22, 2019 (GMT -0400)
Mitchell

Weather History for KHSE - September, 2019

Change the Weather History Date:

Wednesday, September 18, 2019

  Actual Average Record
Temperature  
Mean Temperature - 74 °F  
Max Temperature - 80 °F 90 °F (1931)
Min Temperature - 69 °F 50 °F (1990)
Moisture  
Dew Point -    
Average Humidity    
Maximum Humidity    
Minimum Humidity    
Precipitation  
Precipitation T in 0.20 in 4.74 in (1928)
Month to date precipitation 3.10 3.97  
Year to date precipitation 41.85 41.16  
Snow  
Snow 0.00 in - - ()
Month to date snowfall 0.0  
Since 1 July snowfall 0.0  
Snow Depth 0.00 in    
Sea Level Pressure  
Sea Level Pressure 30.07 in    
Wind  
Wind Speed 12 mph ()    
Max Wind Speed 18 mph    
Max Gust Speed 33 mph    
Visibility 10.0 miles    
Events      
T = Trace of Precipitation, MM = Missing Value Source: Averaged Metar Reports

Daily Weather History Graph

Daily Weather History Graph

Search for Another Location

Airport or City:

Astronomy

Sep. 18, 2019 Rise Set
Actual Time 6:47 AM EDT 7:05 PM EDT
Civil Twilight 6:21 AM EDT 7:30 PM EDT
Nautical Twilight 5:52 AM EDT 8:00 PM EDT
Astronomical Twilight 5:21 AM EDT 8:30 PM EDT
Moon 9:47 PM EDT (9/18) 10:40 AM EDT (9/18)
Length of Visible Light 13h 08m
Length of Day
12h 18m
Waning Gibbous, 82% of the Moon is Illuminated
Sep 18
Waning Gibbous
Sep 21
Last Quarter
Sep 28
New
Oct 5
First Quarter
Oct 13
Full

Hourly Weather History & Observations

Time (EDT) Temp. Dew Point Humidity Pressure Visibility Wind Dir Wind Speed Gust Speed Precip Events Conditions
12:51 AM - - N/A% 30.00 in 10.0 mi NE 12.7 mph 26.5 mph N/A   Clear
1:51 AM - - N/A% 30.01 in 10.0 mi NNE 10.4 mph 26.5 mph N/A   Partly Cloudy
2:51 AM - - N/A% 30.00 in 10.0 mi NE 13.8 mph 26.5 mph N/A   Clear
3:51 AM - - N/A% 30.00 in 10.0 mi NNE 12.7 mph 24.2 mph N/A   Partly Cloudy
4:51 AM - - N/A% 30.01 in 10.0 mi NNE 13.8 mph 26.5 mph N/A   Partly Cloudy
5:51 AM - - N/A% 30.03 in 10.0 mi NE 9.2 mph 23.0 mph N/A   Clear
6:51 AM - - N/A% 30.04 in 10.0 mi NE 11.5 mph 26.5 mph N/A   Partly Cloudy
7:51 AM - - N/A% 30.05 in 10.0 mi NNE 13.8 mph 28.8 mph N/A   Clear
8:51 AM - - N/A% 30.05 in 10.0 mi NNE 15.0 mph 27.6 mph N/A   Clear
9:51 AM - - N/A% 30.06 in 10.0 mi NNE 13.8 mph 32.2 mph N/A   Partly Cloudy
10:51 AM - - N/A% 30.06 in 10.0 mi NNE 12.7 mph 27.6 mph N/A   Clear
11:51 AM - - N/A% 30.06 in 10.0 mi NNE 15.0 mph 26.5 mph N/A   Clear
12:51 PM - - N/A% 30.08 in 10.0 mi NNE 18.4 mph 29.9 mph N/A   Clear
1:51 PM - - N/A% 30.08 in 10.0 mi NE 16.1 mph 27.6 mph N/A   Overcast
2:51 PM - - N/A% 30.08 in 10.0 mi NNE 15.0 mph 28.8 mph N/A   Scattered Clouds
3:51 PM - - N/A% 30.08 in 10.0 mi NNE 13.8 mph 27.6 mph N/A   Overcast
4:51 PM - - N/A% 30.08 in 10.0 mi NNE 15.0 mph 31.1 mph N/A   Overcast
5:51 PM - - N/A% 30.10 in 10.0 mi NNE 13.8 mph 27.6 mph 0.00 in   Overcast
6:51 PM - - N/A% 30.10 in 10.0 mi NE 13.8 mph 24.2 mph N/A   Overcast
7:51 PM - - N/A% 30.11 in 10.0 mi NNE 11.5 mph 25.3 mph N/A   Overcast
8:51 PM - - N/A% 30.13 in 10.0 mi NNE 10.4 mph 26.5 mph N/A   Overcast
9:51 PM - - N/A% 30.13 in 10.0 mi NNE 13.8 mph 28.8 mph N/A   Mostly Cloudy
10:51 PM - - N/A% 30.14 in 10.0 mi NNE 12.7 mph 25.3 mph N/A   Partly Cloudy
11:51 PM - - N/A% 30.13 in 10.0 mi NNE 11.5 mph 26.5 mph N/A   Partly Cloudy